Edmonton City Centre Airport, Alberta

Past 24 Hour Conditions

This table is a summary of hourly weather conditions for the past 24 hours. This summary includes the following parameters: temperature, humidity, dew point, wind speed and direction, air pressure, visibility and/or wind chill and humidex.
Date / Time
(MDT)
Conditions Temp (°C) Humidity (%) Dew Point (°C) Wind (km/h) Pressure (kPa) Visibility (km)
02 September 2014
17:00 Partly Cloudy 16 57 7 WNW 22 gust 32 100.7 15
16:00 Mostly Cloudy 17 55 7 WNW 13 gust 30 100.7 15
15:00 Mostly Cloudy 18   53 8 WSW 13 100.7 15
14:00 Mainly Sunny 16 59 8 WNW 17 100.7 15
13:00 Mostly Cloudy 15 61 8 WSW 9 100.7 15
12:00 Mostly Cloudy 16 62 9 WNW 11 100.7 15
11:00 Mostly Cloudy 14 71 9 NW 13 100.8 15
10:00 Partly Cloudy 14 82 10 NW 15 100.8 15
9:00 Mainly Sunny 12 86 10 WNW 9 100.8 15
8:00 Mostly Cloudy 11 90 9 W 9 100.8 15
7:00 Cloudy 10   88 8 WSW 7 100.7 15
6:00 Mostly Cloudy 10   92 9 S 6 100.7 15
5:00 Light Rain 10   91 9 S 6 100.7 15
4:00 Mostly Cloudy 10   88 8 calm 100.7 15
3:00 Rain 11 86 8 SW 7 100.7 15
2:00 Partly Cloudy 10   84 8 WSW 9 100.8 15
1:00 Mostly Cloudy 11 84 8 WSW 13 100.8 15
00:00 Clear 11 86 9 W 11 100.8 15
01 September 2014
23:00 Mainly Clear 11 86 9 WSW 11 100.8 15
22:00 Clear 12 81 9 SW 9 100.8 15
21:00 Clear 12 77 8 WSW 13 100.8 15
20:00 Mainly Sunny 14 68 8 WSW 13 100.8 15
19:00 Mainly Sunny 15 63 8 W 7 100.8 15
18:00 Partly Cloudy 14 65 8 NNW 9 100.8 15
17:00 Mostly Cloudy 16 59 8 N 6 100.8 15
N/A
Not available
 ↑ 
Highest temperature
 ↓ 
Lowest temperature

If you require additional historical weather information, please visit Climate Data Online.